RH
12 11 11 13 19 27 45 53 53 58 73 84 92 100 100 100 100 100 100 100 100 100 100 100 98 100 100 100 100 96 96 86 77 60 49 43 35 21 20 19 43 81 86 82
13 10 10 11 10 13 22 26 43 70 77 78 91 100 100 100 100 100 100 100 99 98 100 99 99 100 100 100 100 100 99 93 86 86 78 65 56 52 28 21 18 12 14 15
15 11 8 8 10 18 27 34 41 57 63 81 91 93 93 92 99 100 100 100 100 98 100 100 96 100 99 100 100 100 98 95 100 95 100 94 79 83 74 46 26 22 21 17
23 17 8 3 4 10 14 27 42 69 67 59 79 85 90 99 96 96 100 99 100 99 92 97 100 100 100 100 100 100 100 95 100 100 100 100 100 99 88 86 66 36 26 26
27 9 6 1 3 4 9 12 27 63 69 66 66 73 81 78 71 76 80 91 88 97 100 100 98 100 100 100 100 100 100 97 100 100 100 100 95 100 100 98 96 70 36 26
11 4 2 1 1 3 5 13 34 44 55 59 64 69 64 53 54 60 73 74 69 70 80 86 93 98 100 100 100 100 100 100 99 87 93 90 86 98 98 99 99 98 78 32
3 2 1 1 2 3 5 9 22 41 44 62 61 55 50 46 34 27 19 17 18 26 27 28 32 34 44 52 50 52 61 78 86 63 58 51 77 87 94 97 100 99 97 86
1 1 1 2 4 5 7 13 27 35 49 52 51 42 26 8 5 5 6 6 7 7 8 8 12 19 76 100 100 100 100 100 100 100 100 98 100 100 100 100 100 100 100 100
1 2 2 3 5 7 19 26 39 53 59 53 43 18 6 6 12 13 12 10 9 10 13 19 26 83 100 100 100 100 100 98 94 94 97 95 100 100 100 99 100 100 97 100
1 2 2 5 5 8 25 37 52 56 55 47 21 7 8 12 14 13 12 8 8 14 23 34 91 87 100 100 100 100 100 100 100 100 100 100 99 100 100 100 100 100 100 100
2 3 4 6 7 10 26 46 62 59 57 36 9 6 13 15 16 16 13 8 8 16 32 48 59 68 80 69 100 100 100 100 100 96 100 100 99 96 100 100 100 99 100 100
2 4 6 8 9 14 36 52 61 59 52 21 8 10 16 21 24 26 22 13 8 18 36 61 75 73 80 88 96 100 100 99 93 89 93 100 100 93 93 92 81 100 100 100
3 5 6 8 11 17 42 69 68 66 50 14 9 14 24 32 34 36 36 30 14 13 22 41 50 53 57 67 90 98 86 74 64 58 59 70 79 60 50 54 62 66 92 92
4 5 6 8 13 37 59 78 74 69 52 13 11 18 32 36 38 38 41 45 44 21 20 32 47 63 80 81 83 77 64 89 100 100 72 52 80 98 99 100 72 41 49 68
5 6 7 9 14 38 71 82 79 74 52 13 13 24 37 35 39 41 41 49 53 59 48 40 47 64 88 88 76 71 72 85 74 90 93 88 99 100 100 100 100 100 45 48
6 7 9 11 18 46 67 84 82 75 56 17 12 22 40 38 42 45 46 50 58 65 71 74 78 80 71 74 74 68 88 89 67 72 89 94 98 100 100 100 100 100 100 39
7 8 11 15 23 42 86 92 82 77 58 17 13 21 42 46 52 56 56 59 64 70 79 83 91 97 100 94 63 52 60 68 69 60 70 90 100 100 100 100 100 100 100 100
8 9 14 20 26 32 84 100 94 79 65 24 16 20 37 51 62 69 70 72 75 80 86 90 90 97 100 100 100 95 54 51 66 72 60 75 98 100 100 100 100 100 100 100
10 12 17 24 33 40 60 100 89 81 77 40 17 20 33 49 64 76 87 92 92 93 92 96 97 100 100 100 100 100 99 44 36 51 54 58 78 86 100 100 100 99 100 100
13 17 29 24 33 48 50 78 83 81 82 70 26 20 32 46 61 78 88 100 100 100 100 100 100 100 100 100 100 98 100 100 78 28 31 40 51 65 70 91 100 100 100 100
18 18 24 33 44 48 59 75 88 86 83 78 54 20 30 49 61 80 96 100 100 100 100 100 100 100 100 100 100 98 77 90 100 99 63 24 30 40 55 69 75 97 100 100
28 36 46 48 46 49 69 77 87 90 85 86 80 27 26 44 64 84 96 99 100 100 100 100 100 100 100 100 100 100 100 61 32 50 90 97 60 26 31 45 60 68 77 86
38 42 49 54 56 64 86 87 94 98 96 93 92 45 23 28 49 78 95 91 96 97 100 100 100 100 100 100 100 100 100 95 60 29 20 23 55 89 74 35 32 55 74 76
44 49 48 57 60 57 90 93 100 100 100 100 98 55 26 24 36 67 93 100 90 97 100 100 100 100 100 100 84 62 69 74 73 54 34 25 24 22 25 67 98 78 35 25
39 48 50 56 63 74 100 100 100 100 100 100 99 59 24 27 35 51 85 100 100 100 100 100 100 100 94 46 23 19 22 26 27 27 28 29 30 28 26 23 19 28 80 100
28 28 45 54 81 91 100 100 100 100 100 100 99 68 24 25 45 68 81 100 100 100 100 100 99 91 24 14 20 23 20 19 19 19 20 21 23 28 33 35 33 27 24 30
19 26 58 87 100 100 100 97 92 90 95 100 100 66 28 30 43 68 98 100 100 100 100 100 88 20 15 23 20 18 19 19 18 18 18 21 24 27 28 31 38 46 44 37
Wind_Speed
52 46 46 46 45 46 47 46 46 44 42 40 39 36 37 38 36 36 37 40 40 39 40 40 42 42 41 43 44 44 41 44 40 36 33 31 28 26 27 27 27 28 31 30
50 46 46 47 48 48 46 47 46 45 42 39 38 40 40 41 40 40 40 40 40 42 41 43 41 43 45 45 45 46 45 45 44 42 40 38 36 31 31 31 32 31 32 31
51 50 50 50 50 49 48 49 49 45 41 42 41 40 40 42 41 42 42 42 43 44 43 45 47 46 49 47 46 47 48 48 46 46 43 45 45 39 34 36 37 35 31 31
52 51 51 51 51 49 49 49 50 48 45 45 44 42 42 44 46 46 47 48 50 51 52 52 51 51 53 53 53 52 51 51 48 47 46 46 47 45 47 43 38 42 38 35
54 51 54 52 52 50 51 51 48 44 43 42 44 45 46 49 52 53 52 55 57 57 59 60 60 59 55 53 50 49 52 53 53 52 53 54 54 54 49 47 46 42 42 39
53 53 55 54 54 53 50 48 45 41 42 46 47 48 50 53 55 56 58 60 61 62 62 60 57 56 56 58 58 58 60 60 61 62 59 58 57 56 54 50 47 44 43 44
53 55 56 55 54 53 51 47 43 43 47 47 49 53 56 58 60 62 61 61 62 62 63 64 62 59 55 53 52 51 48 43 45 53 52 53 47 45 44 42 32 35 40 45
55 56 56 55 52 51 48 46 46 47 49 50 53 57 61 60 56 55 54 54 54 56 57 58 54 47 21 12 19 27 30 30 31 32 32 34 28 28 28 30 30 31 36 41
55 56 55 52 50 48 46 47 48 50 52 56 59 62 58 51 50 50 50 51 52 52 50 42 33 19 18 14 14 21 26 33 34 34 34 36 36 34 37 38 38 36 38 41
56 55 53 51 50 49 46 48 48 50 53 58 62 56 48 50 50 51 52 54 51 45 37 30 16 16 17 14 18 21 13 14 10 10 15 22 30 32 34 37 38 38 37 39
56 53 50 50 51 49 48 49 49 52 55 59 59 47 43 44 46 49 53 56 52 41 32 27 22 19 20 18 12 10 16 15 14 14 15 17 13 15 21 26 31 41 42 41
53 50 51 51 52 49 48 49 50 53 56 60 51 40 40 41 44 46 53 58 55 43 34 26 23 22 22 16 3 4 16 20 22 22 21 20 21 27 28 27 26 31 36 40
52 50 51 53 53 50 49 49 50 53 56 56 45 37 39 41 42 44 49 55 58 47 38 28 26 28 28 20 5 9 16 20 25 27 28 25 27 31 33 35 35 31 36 39
51 51 52 53 52 46 48 48 50 52 54 53 40 35 38 38 40 44 48 51 53 53 47 40 36 33 34 30 26 20 17 19 25 18 18 14 17 21 23 24 33 38 32 34
52 52 54 54 54 47 46 47 51 52 52 51 38 33 34 39 41 42 46 48 50 52 53 48 39 35 32 27 26 24 17 24 24 16 12 14 17 21 25 26 22 15 23 30
53 53 54 55 53 48 45 46 49 52 51 51 37 33 33 38 42 41 42 46 48 48 49 47 45 43 37 31 28 27 27 27 23 15 14 19 22 24 24 22 20 13 7 18
55 54 54 55 53 48 44 46 49 51 49 48 39 34 33 35 39 42 42 43 46 47 47 44 43 40 39 37 31 25 25 27 24 18 16 17 20 16 17 17 15 14 8 5
55 55 55 54 52 48 43 45 48 49 46 45 42 36 34 35 37 40 41 41 42 44 44 43 42 41 39 37 36 32 27 21 24 26 20 15 15 14 14 14 13 10 8 5
56 56 55 53 48 43 40 42 44 45 44 44 43 38 32 33 36 37 38 39 38 39 39 39 39 37 35 34 32 30 29 22 18 20 25 18 13 14 13 11 9 8 8 5
55 56 53 51 46 42 40 41 42 42 43 43 43 42 33 33 35 37 38 37 36 33 34 34 32 31 32 32 34 35 30 28 26 20 21 25 24 17 14 11 10 8 6 7
56 54 51 47 46 43 40 40 43 44 44 43 44 42 36 33 33 36 38 38 35 33 33 35 35 35 35 34 35 35 34 32 28 25 22 23 25 24 22 19 16 14 14 14
54 51 47 46 45 46 42 40 42 45 45 44 43 42 37 35 33 33 35 36 37 33 36 36 38 38 37 37 36 35 35 33 32 29 24 22 21 26 27 26 26 25 25 25
48 44 45 46 46 46 44 42 42 44 44 46 44 44 42 39 36 34 35 38 40 37 39 40 40 40 39 39 38 35 35 35 33 33 31 28 26 22 22 29 33 32 33 32
41 43 45 45 47 47 44 43 42 43 44 46 44 45 45 44 36 34 35 36 41 43 43 42 43 42 40 40 40 40 38 38 36 35 33 32 32 30 28 26 24 29 37 41
40 45 47 47 44 44 43 43 42 41 42 45 45 45 45 45 36 30 32 35 40 44 44 43 43 43 43 42 42 41 41 40 39 38 38 38 37 35 34 33 32 30 28 30
43 45 46 45 42 41 43 43 43 41 42 45 45 47 48 48 38 28 32 34 39 43 43 43 43 44 43 43 43 43 43 43 42 41 39 38 37 36 36 34 33 33 33 32
44 43 42 40 38 39 41 42 45 44 44 45 46 47 47 48 36 32 32 35 41 43 42 42 41 43 43 43 42 42 41 42 43 44 43 42 39 37 35 35 33 31 31 32
Wind_Direction
350 345 340 336 332 328 329 326 327 327 328 324 320 316 312 310 308 307 306 307 306 304 303 301 301 299 296 294 291 287 287 288 288 289 289 288 285 284 284 280 276 274 276 276
347 340 337 333 332 331 331 330 330 330 327 325 321 319 316 314 312 309 308 307 305 305 305 303 301 298 294 292 290 288 286 284 284 283 280 280 281 280 275 275 274 273 276 282
344 340 336 334 331 330 329 326 328 328 329 325 324 321 317 315 314 312 310 309 307 305 303 301 299 296 293 292 289 287 285 283 281 280 279 278 276 276 274 272 270 275 272 273
343 341 336 334 331 330 331 330 331 329 331 330 327 323 321 319 318 317 314 312 308 305 302 298 294 292 292 290 287 285 280 279 276 275 274 272 273 274 277 275 271 267 270 272
342 340 338 334 332 331 333 332 333 332 331 330 329 327 326 326 324 320 315 310 306 304 300 297 295 293 290 287 283 280 278 277 274 270 272 273 272 274 275 273 270 267 263 262
340 341 339 335 335 335 337 336 335 337 335 331 333 332 331 328 323 317 314 310 308 305 301 299 297 293 289 285 283 281 281 281 278 275 278 275 273 275 275 274 273 265 260 257
341 340 340 337 338 339 340 339 337 338 338 337 337 335 331 328 323 318 315 312 310 306 303 299 295 292 290 287 285 284 284 283 280 279 277 276 276 275 275 277 264 257 255 254
342 342 341 339 342 342 340 338 337 339 341 340 337 336 332 329 329 328 327 323 318 312 308 306 305 311 317 274 271 268 268 259 257 264 262 265 247 244 243 238 240 234 239 244
343 342 341 342 342 342 339 339 339 340 340 340 340 337 337 341 343 341 337 333 327 320 319 317 320 317 307 288 256 265 277 277 278 278 276 272 265 260 260 259 254 250 247 250
343 342 341 342 342 340 338 338 341 341 341 341 341 342 346 350 350 349 345 343 339 334 338 344 342 318 304 285 286 301 319 320 318 294 268 266 267 261 253 249 253 248 243 250
342 341 341 340 340 339 337 339 341 342 342 342 343 347 352 355 355 356 356 356 355 353 352 357 356 350 337 320 275 294 311 299 287 301 298 302 301 292 285 266 253 255 252 245
342 340 339 339 340 338 335 339 342 343 343 345 345 349 354 355 357 0 2 6 6 3 1 358 357 349 348 343 41 282 298 296 290 295 296 296 308 303 295 287 268 253 240 234
341 340 338 338 338 337 334 338 342 343 344 345 346 348 355 358 2 3 8 12 16 14 15 10 7 20 19 18 11 305 302 304 307 296 286 288 288 292 292 285 277 263 248 240
340 339 336 337 336 337 335 338 341 343 343 345 344 350 358 358 2 4 10 16 20 24 24 31 35 30 22 17 13 1 353 351 348 336 315 313 308 317 323 322 285 264 254 248
338 337 335 336 335 337 337 339 341 342 342 345 342 349 356 358 2 4 9 13 18 22 28 31 32 29 22 16 9 8 357 347 3 13 12 354 344 342 343 347 353 283 255 246
336 335 334 334 335 337 337 338 340 340 341 347 341 343 350 356 359 3 7 11 14 18 21 26 29 26 20 12 3 360 360 352 346 353 343 348 355 351 344 344 353 354 286 245
333 333 332 332 334 334 336 337 336 338 343 349 344 341 345 354 358 2 4 8 10 12 14 13 15 15 15 14 6 357 352 345 338 340 354 346 348 354 347 348 356 4 2 303
330 330 330 331 332 334 332 331 333 336 343 349 349 342 341 348 355 360 0 4 6 7 8 7 5 2 1 0 5 2 351 336 327 324 328 341 343 343 353 2 9 10 16 20
327 328 329 331 331 331 332 330 331 335 343 347 351 345 338 343 349 354 357 357 360 1 4 2 0 354 351 349 351 0 3 333 319 311 313 318 320 328 330 336 342 356 347 337
327 327 328 329 333 332 332 329 331 335 341 344 348 349 340 339 344 347 350 352 354 354 354 357 354 349 348 349 356 358 355 353 349 310 301 308 312 310 309 311 307 293 276 285
325 325 329 331 333 332 329 331 336 336 339 343 348 350 343 337 341 343 346 347 346 348 349 348 348 349 348 349 351 350 350 351 342 343 335 300 299 301 294 287 283 271 259 255
327 327 330 330 330 335 335 333 334 336 338 341 343 346 345 335 334 339 340 342 342 344 341 343 345 345 343 345 346 342 340 340 339 339 332 327 312 287 286 284 274 265 260 257
327 325 328 332 331 332 335 333 333 335 334 338 340 341 346 340 330 330 336 339 340 341 341 342 341 343 341 337 338 337 334 334 331 326 324 324 321 308 294 275 271 271 269 265
326 325 327 329 329 331 330 332 329 331 331 334 337 336 341 341 332 325 330 336 337 340 338 339 339 339 337 334 334 334 331 327 323 320 317 313 310 306 305 297 286 274 266 266
327 324 323 325 326 327 329 330 327 327 328 331 335 334 337 339 331 322 324 335 333 334 333 334 334 335 334 334 333 332 330 326 322 319 315 312 308 304 300 296 292 290 284 275
322 317 316 320 321 322 323 329 330 328 328 330 333 333 338 338 335 328 322 329 330 330 330 331 333 332 332 332 332 331 331 330 328 325 320 315 311 307 304 300 294 287 283 282
320 316 312 315 316 317 317 323 328 328 326 329 331 333 339 336 337 331 329 330 329 329 329 328 330 329 332 331 332 334 334 335 335 333 329 322 314 306 301 298 295 293 287 282